Time,TemperatureF,DewpointF,PressureIn,WindDirection,WindDirectionDegrees,WindSpeedMPH,WindSpeedGustMPH,Humidity,HourlyPrecipIn,Conditions,Clouds,dailyrainin,SoftwareType,DateUTC
2013-03-23 00:03:00,37.0,24.0,29.87,SSW,195,1.0,7.0,59,0.00,,,0.00,,2013-03-23 04:03:00,
2013-03-23 00:12:00,37.0,24.0,29.87,SSW,195,1.0,7.0,59,0.00,,,0.00,,2013-03-23 04:12:00,
2013-03-23 00:23:00,37.0,24.0,29.87,South,185,3.0,5.0,60,0.00,,,0.00,,2013-03-23 04:23:00,
2013-03-23 00:32:00,36.0,24.0,29.87,West,273,1.0,6.0,61,0.00,,,0.00,,2013-03-23 04:32:00,
2013-03-23 00:43:00,36.0,24.0,29.87,West,273,1.0,6.0,61,0.00,,,0.00,,2013-03-23 04:43:00,
2013-03-23 00:53:00,36.0,24.0,29.87,SSW,213,1.0,10.0,61,0.00,,,0.00,,2013-03-23 04:53:00,
2013-03-23 01:02:00,36.0,24.0,29.87,SSW,210,1.0,5.0,62,0.00,,,0.00,,2013-03-23 05:02:00,
2013-03-23 01:12:00,36.0,24.0,29.87,SSW,210,1.0,5.0,62,0.00,,,0.00,,2013-03-23 05:12:00,
2013-03-23 01:22:00,36.0,24.0,29.87,South,177,1.0,5.0,62,0.00,,,0.00,,2013-03-23 05:22:00,
2013-03-23 01:32:00,36.0,25.0,29.87,SW,229,0.0,2.0,63,0.00,,,0.00,,2013-03-23 05:32:00,
2013-03-23 01:42:00,36.0,25.0,29.87,SW,229,0.0,2.0,63,0.00,,,0.00,,2013-03-23 05:42:00,
2013-03-23 01:52:00,36.0,25.0,29.87,SSE,162,1.0,2.0,63,0.00,,,0.00,,2013-03-23 05:52:00,
2013-03-23 02:02:00,36.0,25.0,29.87,South,191,0.0,3.0,63,0.00,,,0.00,,2013-03-23 06:02:00,
2013-03-23 02:12:00,36.0,25.0,29.87,South,191,0.0,3.0,63,0.00,,,0.00,,2013-03-23 06:12:00,
2013-03-23 02:22:00,36.0,25.0,29.87,SSE,149,0.0,2.0,63,0.00,,,0.00,,2013-03-23 06:22:00,
2013-03-23 02:32:00,36.0,24.0,29.88,ENE,60,1.0,3.0,62,0.00,,,0.00,,2013-03-23 06:32:00,
2013-03-23 02:42:00,36.0,24.0,29.88,ENE,60,1.0,3.0,62,0.00,,,0.00,,2013-03-23 06:42:00,
2013-03-23 02:52:00,36.0,24.0,29.88,ENE,60,1.0,3.0,62,0.00,,,0.00,,2013-03-23 06:52:00,
2013-03-23 03:03:00,36.0,22.0,29.88,SW,219,0.0,2.0,56,0.00,,,0.00,,2013-03-23 07:03:00,
2013-03-23 03:12:00,36.0,22.0,29.88,SW,219,0.0,2.0,56,0.00,,,0.00,,2013-03-23 07:12:00,
2013-03-23 03:22:00,36.0,22.0,29.88,SW,219,0.0,2.0,56,0.00,,,0.00,,2013-03-23 07:22:00,
2013-03-23 03:32:00,36.0,21.0,29.88,SSW,213,1.0,3.0,55,0.00,,,0.00,,2013-03-23 07:32:00,
2013-03-23 03:42:00,36.0,21.0,29.88,SSW,213,1.0,3.0,55,0.00,,,0.00,,2013-03-23 07:42:00,
2013-03-23 03:52:00,36.0,21.0,29.87,SW,214,2.0,3.0,54,0.00,,,0.00,,2013-03-23 07:52:00,
2013-03-23 04:03:00,36.0,21.0,29.86,WSW,248,2.0,3.0,54,0.00,,,0.00,,2013-03-23 08:03:00,
2013-03-23 04:13:00,36.0,21.0,29.86,WSW,248,2.0,3.0,54,0.00,,,0.00,,2013-03-23 08:13:00,
2013-03-23 04:22:00,36.0,21.0,29.85,SSW,197,1.0,2.0,54,0.00,,,0.00,,2013-03-23 08:22:00,
2013-03-23 04:32:00,35.0,20.0,29.85,SSW,196,0.0,3.0,54,0.00,,,0.00,,2013-03-23 08:32:00,
2013-03-23 04:42:00,35.0,20.0,29.85,SSW,196,0.0,3.0,54,0.00,,,0.00,,2013-03-23 08:42:00,
2013-03-23 04:52:00,35.0,20.0,29.85,SSW,213,0.0,3.0,54,0.00,,,0.00,,2013-03-23 08:52:00,
2013-03-23 05:02:00,35.0,20.0,29.86,SE,141,0.0,3.0,55,0.00,,,0.00,,2013-03-23 09:02:00,
2013-03-23 05:12:00,35.0,20.0,29.86,SE,141,0.0,3.0,55,0.00,,,0.00,,2013-03-23 09:12:00,
2013-03-23 05:22:00,35.0,20.0,29.86,SE,141,0.0,3.0,55,0.00,,,0.00,,2013-03-23 09:22:00,
2013-03-23 05:33:00,35.0,21.0,29.86,SSW,210,0.0,3.0,56,0.00,,,0.00,,2013-03-23 09:33:00,
2013-03-23 05:43:00,35.0,21.0,29.86,SSW,210,0.0,3.0,56,0.00,,,0.00,,2013-03-23 09:43:00,
2013-03-23 05:53:00,35.0,21.0,29.86,SSW,198,0.0,3.0,57,0.00,,,0.00,,2013-03-23 09:53:00,
2013-03-23 06:03:00,34.0,20.0,29.87,SSE,167,0.0,2.0,57,0.00,,,0.00,,2013-03-23 10:03:00,
2013-03-23 06:13:00,34.0,20.0,29.87,SSE,167,0.0,2.0,57,0.00,,,0.00,,2013-03-23 10:13:00,
2013-03-23 06:23:00,34.0,20.0,29.87,South,191,1.0,5.0,57,0.00,,,0.00,,2013-03-23 10:23:00,
2013-03-23 06:34:00,34.0,20.0,29.87,SSW,198,1.0,5.0,57,0.00,,,0.00,,2013-03-23 10:34:00,
2013-03-23 06:43:00,34.0,20.0,29.87,SSW,198,1.0,5.0,57,0.00,,,0.00,,2013-03-23 10:43:00,
2013-03-23 06:52:00,34.0,21.0,29.88,South,191,2.0,6.0,58,0.00,,,0.00,,2013-03-23 10:52:00,
2013-03-23 07:03:00,34.0,21.0,29.88,SSW,207,3.0,3.0,59,0.00,,,0.00,,2013-03-23 11:03:00,
2013-03-23 07:12:00,34.0,21.0,29.88,SSW,207,3.0,3.0,59,0.00,,,0.00,,2013-03-23 11:12:00,
2013-03-23 07:22:00,34.0,21.0,29.88,SSW,198,1.0,3.0,59,0.00,,,0.00,,2013-03-23 11:22:00,
2013-03-23 07:32:00,34.0,22.0,29.88,West,270,1.0,3.0,60,0.00,,,0.00,,2013-03-23 11:32:00,
2013-03-23 07:42:00,34.0,22.0,29.88,West,270,1.0,3.0,60,0.00,,,0.00,,2013-03-23 11:42:00,
2013-03-23 07:51:00,34.0,22.0,29.88,SSW,202,2.0,6.0,60,0.00,,,0.00,,2013-03-23 11:51:00,
2013-03-23 08:02:00,34.0,22.0,29.88,ESE,104,0.0,1.0,61,0.00,,,0.00,,2013-03-23 12:02:00,
2013-03-23 08:13:00,34.0,22.0,29.88,ESE,104,0.0,1.0,61,0.00,,,0.00,,2013-03-23 12:13:00,
2013-03-23 08:22:00,34.0,22.0,29.89,ENE,59,1.0,2.0,60,0.00,,,0.00,,2013-03-23 12:22:00,
2013-03-23 08:33:00,36.0,23.0,29.88,SSW,211,3.0,7.0,58,0.00,,,0.00,,2013-03-23 12:33:00,
2013-03-23 08:42:00,36.0,23.0,29.88,SSW,211,3.0,7.0,58,0.00,,,0.00,,2013-03-23 12:42:00,
2013-03-23 09:03:00,37.0,23.0,29.87,SSW,195,3.0,5.0,56,0.00,,,0.00,,2013-03-23 13:03:00,
2013-03-23 09:12:00,37.0,23.0,29.87,SSW,195,3.0,5.0,56,0.00,,,0.00,,2013-03-23 13:12:00,
2013-03-23 09:23:00,37.0,22.0,29.87,NNE,22,2.0,6.0,55,0.00,,,0.00,,2013-03-23 13:23:00,
2013-03-23 09:33:00,38.0,23.0,29.87,NW,304,1.0,7.0,55,0.00,,,0.00,,2013-03-23 13:33:00,
2013-03-23 09:43:00,38.0,23.0,29.87,NW,304,1.0,7.0,55,0.00,,,0.00,,2013-03-23 13:43:00,
2013-03-23 09:52:00,38.0,22.0,29.87,WSW,239,2.0,8.0,53,0.00,,,0.00,,2013-03-23 13:52:00,
2013-03-23 10:03:00,39.0,23.0,29.86,West,266,3.0,8.0,53,0.00,,,0.00,,2013-03-23 14:03:00,
2013-03-23 10:12:00,39.0,23.0,29.86,West,266,3.0,8.0,53,0.00,,,0.00,,2013-03-23 14:12:00,
2013-03-23 10:22:00,39.0,23.0,29.86,SE,146,3.0,8.0,52,0.00,,,0.00,,2013-03-23 14:22:00,
2013-03-23 10:32:00,40.0,23.0,29.85,South,177,3.0,7.0,50,0.00,,,0.00,,2013-03-23 14:32:00,
2013-03-23 10:43:00,40.0,23.0,29.85,South,177,3.0,7.0,50,0.00,,,0.00,,2013-03-23 14:43:00,
2013-03-23 10:52:00,41.0,24.0,29.85,SSE,157,3.0,10.0,50,0.00,,,0.00,,2013-03-23 14:52:00,
2013-03-23 11:04:00,41.0,23.0,29.85,SSE,150,2.0,7.0,49,0.00,,,0.00,,2013-03-23 15:04:00,
2013-03-23 11:12:00,41.0,23.0,29.85,SSE,150,2.0,7.0,49,0.00,,,0.00,,2013-03-23 15:12:00,
2013-03-23 11:22:00,41.0,23.0,29.85,SSE,150,2.0,7.0,49,0.00,,,0.00,,2013-03-23 15:22:00,
2013-03-23 11:33:00,42.0,24.0,29.86,SSW,199,1.0,3.0,48,0.00,,,0.00,,2013-03-23 15:33:00,
2013-03-23 11:43:00,42.0,24.0,29.86,SSW,199,1.0,3.0,48,0.00,,,0.00,,2013-03-23 15:43:00,
2013-03-23 11:53:00,42.0,24.0,29.86,SSW,199,1.0,3.0,48,0.00,,,0.00,,2013-03-23 15:53:00,
2013-03-23 12:03:00,42.0,23.0,29.85,West,281,2.0,5.0,46,0.00,,,0.00,,2013-03-23 16:03:00,
2013-03-23 12:13:00,42.0,23.0,29.85,West,281,2.0,5.0,46,0.00,,,0.00,,2013-03-23 16:13:00,
2013-03-23 12:23:00,42.0,23.0,29.85,West,281,2.0,5.0,46,0.00,,,0.00,,2013-03-23 16:23:00,
2013-03-23 12:33:00,43.0,23.0,29.85,SSW,193,1.0,7.0,45,0.00,,,0.00,,2013-03-23 16:33:00,
2013-03-23 12:43:00,43.0,23.0,29.85,SSW,193,1.0,7.0,45,0.00,,,0.00,,2013-03-23 16:43:00,
2013-03-23 12:54:00,43.0,22.0,29.85,West,264,2.0,7.0,43,0.00,,,0.00,,2013-03-23 16:54:00,
2013-03-23 13:03:00,43.0,23.0,29.85,NNW,330,2.0,6.0,44,0.00,,,0.00,,2013-03-23 17:03:00,
2013-03-23 13:12:00,43.0,22.0,29.85,ENE,66,3.0,7.0,43,0.00,,,0.00,,2013-03-23 17:12:00,
2013-03-23 13:23:00,43.0,22.0,29.85,ENE,66,3.0,7.0,43,0.00,,,0.00,,2013-03-23 17:23:00,
2013-03-23 13:33:00,45.0,23.0,29.84,SW,214,3.0,6.0,41,0.00,,,0.00,,2013-03-23 17:33:00,
2013-03-23 13:42:00,45.0,23.0,29.84,SW,214,3.0,6.0,41,0.00,,,0.00,,2013-03-23 17:42:00,
2013-03-23 13:52:00,45.0,23.0,29.84,SW,214,3.0,6.0,41,0.00,,,0.00,,2013-03-23 17:52:00,
2013-03-23 14:03:00,44.0,22.0,29.83,NNW,338,3.0,9.0,42,0.00,,,0.00,,2013-03-23 18:03:00,
2013-03-23 14:12:00,44.0,22.0,29.83,NNW,338,3.0,9.0,42,0.00,,,0.00,,2013-03-23 18:12:00,
2013-03-23 14:23:00,44.0,23.0,29.83,SE,131,2.0,7.0,43,0.00,,,0.00,,2013-03-23 18:23:00,
2013-03-23 14:32:00,44.0,23.0,29.83,North,357,1.0,9.0,43,0.00,,,0.00,,2013-03-23 18:32:00,
2013-03-23 14:43:00,44.0,23.0,29.83,North,357,1.0,9.0,43,0.00,,,0.00,,2013-03-23 18:43:00,
2013-03-23 14:52:00,44.0,23.0,29.83,North,357,1.0,9.0,43,0.00,,,0.00,,2013-03-23 18:52:00,
2013-03-23 15:03:00,45.0,22.0,29.83,WSW,240,2.0,10.0,40,0.00,,,0.00,,2013-03-23 19:03:00,
2013-03-23 15:13:00,45.0,22.0,29.83,WSW,240,2.0,10.0,40,0.00,,,0.00,,2013-03-23 19:13:00,
2013-03-23 15:23:00,45.0,22.0,29.83,WSW,240,2.0,10.0,40,0.00,,,0.00,,2013-03-23 19:23:00,
2013-03-23 15:32:00,46.0,22.0,29.82,SSE,155,4.0,7.0,39,0.00,,,0.00,,2013-03-23 19:32:00,
2013-03-23 15:43:00,46.0,22.0,29.82,SSE,155,4.0,7.0,39,0.00,,,0.00,,2013-03-23 19:43:00,
2013-03-23 15:53:00,45.0,22.0,29.81,SW,228,2.0,9.0,40,0.00,,,0.00,,2013-03-23 19:53:00,
2013-03-23 16:03:00,45.0,22.0,29.81,NNE,24,2.0,8.0,39,0.00,,,0.00,,2013-03-23 20:03:00,
2013-03-23 16:13:00,45.0,22.0,29.81,NNE,24,2.0,8.0,39,0.00,,,0.00,,2013-03-23 20:13:00,
2013-03-23 16:22:00,46.0,22.0,29.81,North,356,1.0,6.0,38,0.00,,,0.00,,2013-03-23 20:22:00,
2013-03-23 16:32:00,47.0,22.0,29.80,SW,222,4.0,8.0,37,0.00,,,0.00,,2013-03-23 20:32:00,
2013-03-23 16:42:00,47.0,22.0,29.80,SW,222,4.0,8.0,37,0.00,,,0.00,,2013-03-23 20:42:00,
2013-03-23 16:52:00,46.0,21.0,29.81,NNE,22,3.0,8.0,37,0.00,,,0.00,,2013-03-23 20:52:00,
2013-03-23 17:02:00,46.0,22.0,29.81,South,181,2.0,6.0,38,0.00,,,0.00,,2013-03-23 21:02:00,
2013-03-23 17:12:00,46.0,22.0,29.81,South,181,2.0,6.0,38,0.00,,,0.00,,2013-03-23 21:12:00,
2013-03-23 17:22:00,46.0,22.0,29.81,South,181,2.0,6.0,38,0.00,,,0.00,,2013-03-23 21:22:00,
2013-03-23 17:33:00,45.0,22.0,29.82,North,350,1.0,6.0,39,0.00,,,0.00,,2013-03-23 21:33:00,
2013-03-23 17:43:00,45.0,22.0,29.82,North,350,1.0,6.0,39,0.00,,,0.00,,2013-03-23 21:43:00,
2013-03-23 17:54:00,45.0,21.0,29.82,North,0,2.0,8.0,38,0.00,,,0.00,,2013-03-23 21:54:00,
2013-03-23 18:03:00,45.0,21.0,29.83,North,1,3.0,6.0,38,0.00,,,0.00,,2013-03-23 22:03:00,
2013-03-23 18:13:00,45.0,21.0,29.83,North,1,3.0,6.0,38,0.00,,,0.00,,2013-03-23 22:13:00,
2013-03-23 18:23:00,45.0,22.0,29.83,SSE,167,2.0,6.0,39,0.00,,,0.00,,2013-03-23 22:23:00,
2013-03-23 18:33:00,44.0,21.0,29.84,West,266,1.0,6.0,40,0.00,,,0.00,,2013-03-23 22:33:00,
2013-03-23 18:42:00,44.0,21.0,29.84,West,266,1.0,6.0,40,0.00,,,0.00,,2013-03-23 22:42:00,
2013-03-23 18:53:00,44.0,21.0,29.84,West,266,1.0,6.0,40,0.00,,,0.00,,2013-03-23 22:53:00,
2013-03-23 19:02:00,43.0,21.0,29.85,South,174,2.0,5.0,41,0.00,,,0.00,,2013-03-23 23:02:00,
2013-03-23 19:13:00,43.0,21.0,29.85,South,174,2.0,5.0,41,0.00,,,0.00,,2013-03-23 23:13:00,
2013-03-23 19:23:00,43.0,21.0,29.85,North,351,3.0,6.0,41,0.00,,,0.00,,2013-03-23 23:23:00,
2013-03-23 19:33:00,43.0,20.0,29.85,NNW,334,1.0,7.0,40,0.00,,,0.00,,2013-03-23 23:33:00,
2013-03-23 19:43:00,43.0,20.0,29.85,NNW,334,1.0,7.0,40,0.00,,,0.00,,2013-03-23 23:43:00,
2013-03-23 19:52:00,43.0,22.0,29.86,South,173,2.0,6.0,42,0.00,,,0.00,,2013-03-23 23:52:00,
2013-03-23 20:02:00,43.0,22.0,29.86,South,173,2.0,6.0,42,0.00,,,0.00,,2013-03-24 00:02:00,
2013-03-23 20:13:00,43.0,22.0,29.86,South,173,2.0,6.0,42,0.00,,,0.00,,2013-03-24 00:13:00,
2013-03-23 20:23:00,43.0,22.0,29.86,South,173,2.0,6.0,42,0.00,,,0.00,,2013-03-24 00:23:00,
2013-03-23 20:33:00,42.0,21.0,29.89,South,183,3.0,8.0,43,0.00,,,0.00,,2013-03-24 00:33:00,
2013-03-23 20:42:00,42.0,21.0,29.89,South,183,3.0,8.0,43,0.00,,,0.00,,2013-03-24 00:42:00,
2013-03-23 20:53:00,41.0,21.0,29.89,North,7,0.0,5.0,44,0.00,,,0.00,,2013-03-24 00:53:00,
2013-03-23 21:02:00,41.0,21.0,29.90,NNE,32,2.0,6.0,44,0.00,,,0.00,,2013-03-24 01:02:00,
2013-03-23 21:12:00,41.0,21.0,29.90,NNE,32,2.0,6.0,44,0.00,,,0.00,,2013-03-24 01:12:00,
2013-03-23 21:22:00,41.0,21.0,29.90,ESE,120,2.0,3.0,44,0.00,,,0.00,,2013-03-24 01:22:00,
2013-03-23 21:33:00,40.0,20.0,29.90,SW,220,1.0,5.0,45,0.00,,,0.00,,2013-03-24 01:33:00,
2013-03-23 21:42:00,40.0,20.0,29.90,SW,220,1.0,5.0,45,0.00,,,0.00,,2013-03-24 01:42:00,
2013-03-23 21:52:00,40.0,20.0,29.90,SW,220,1.0,5.0,45,0.00,,,0.00,,2013-03-24 01:52:00,
2013-03-23 22:03:00,40.0,21.0,29.91,NW,317,0.0,3.0,46,0.00,,,0.00,,2013-03-24 02:03:00,
2013-03-23 22:12:00,40.0,21.0,29.91,NW,317,0.0,3.0,46,0.00,,,0.00,,2013-03-24 02:12:00,
2013-03-23 22:22:00,40.0,21.0,29.91,NW,317,0.0,3.0,46,0.00,,,0.00,,2013-03-24 02:22:00,
2013-03-23 22:32:00,39.0,20.0,29.92,NNW,343,1.0,2.0,47,0.00,,,0.00,,2013-03-24 02:32:00,
2013-03-23 22:42:00,39.0,20.0,29.92,NNW,343,1.0,2.0,47,0.00,,,0.00,,2013-03-24 02:42:00,
2013-03-23 22:52:00,39.0,21.0,29.91,NE,45,2.0,3.0,48,0.00,,,0.00,,2013-03-24 02:52:00,
2013-03-23 23:03:00,39.0,21.0,29.92,NNE,27,1.0,3.0,48,0.00,,,0.00,,2013-03-24 03:03:00,
2013-03-23 23:12:00,39.0,21.0,29.92,NNE,27,1.0,3.0,48,0.00,,,0.00,,2013-03-24 03:12:00,
2013-03-23 23:23:00,38.0,20.0,29.92,SW,233,6.0,9.0,48,0.00,,,0.00,,2013-03-24 03:23:00,
2013-03-23 23:33:00,38.0,21.0,29.93,North,350,2.0,5.0,49,0.00,,,0.00,,2013-03-24 03:33:00,
2013-03-23 23:42:00,38.0,21.0,29.93,North,350,2.0,5.0,49,0.00,,,0.00,,2013-03-24 03:42:00,
2013-03-23 23:53:00,38.0,21.0,29.93,North,350,2.0,5.0,49,0.00,,,0.00,,2013-03-24 03:53:00,